Погода в Корриентесе

Аргентина     27°29′10″S   58°47′30″W
темп.,
°C
ветер,
м/с
пор.,
м/с
влажн.,
%
обл.,
%
осадки,
мм/ч
давл.,
гПа
погр.,
м
19 апреля, пн
пн1900:00+19вюв27820 0.0 1015156
03:00+18вюв25870 0.0 1015106
06:00+17вюв23900 0.0 101576
09:00+20в35760 0.0 1016245
12:00+27в34520 0.0 1016893
15:00+30в33400 0.0 10131674
18:00+26вюв36580 0.0 1013160
21:00+21в35710 0.0 101499
20 апреля, вт
вт2000:00+19в38800 0.0 1014156
03:00+19в27820 0.0 1013168
06:00+17в25830 0.0 1014109
09:00+21в36670 0.0 1015241
12:00+28всв45430 0.0 1015787
15:00+31всв45370 0.0 10121609
18:00+26всв36570 0.0 1011220
21:00+22в3107114 0.0 1012203
21 апреля, ср
ср2100:00+20в3127378 0.0 1012295
03:00+19в312726 0.0 1011274
06:00+18всв310760 0.0 1011214
09:00+21всв411630 0.0 1013308
12:00+29св69412 0.0 1013935
15:00+31св57380 0.0 10101274
18:00+27всв385215 0.0 1010327
21:00+23в310640 0.0 1012222
22 апреля, чт
чт2200:00+22всв413635 0.0 1012328
03:00+21всв414595 0.0 1011333
06:00+20всв41361100 0.0 1011317
09:00+21в3866100 0.1 1014254
12:00+24юв2156100 0.0 1014388
15:00+24с1361100 0.0 1012161
18:00+23зюз4761100 0.0 1012257
21:00+22вюв41164100 0.0 1010268
23 апреля, пт
пт2300:00+21вюв31172100 0.0 1011310
03:00+22в31060100 0.0 1010330
06:00+22ссв2758100 0.0 1011203
09:00+22ссв41262100 0.0 1012436
12:00+25с4761100 0.0 1011576
15:00+23ссв51067100 0.2 1010622
18:00+20ссв3892100 0.8 1010482
21:00+19всв2498100 2.3 1010202